Regional Weather Roundup
Issued by NWS Midland/Odessa, TX

Home | Current Version | Previous Version | Text Only | Print | Product List | Glossary On
Versions: 1 2 3 4 5 6 7 8 9 10 11 12 13 14 15 16 17 18 19 20 21 22 23 24 25 26 27 28 29 30 31 32 33 34 35 36 37 38 39 40 41 42 43 44 45 46 47 48 49 50
000
ASUS44 KMAF 101110
RWRMAF
MIDLAND AREA WEATHER ROUNDUP
NATIONAL WEATHER SERVICE MIDLAND TX
500 AM CST WED FEB 10 2016

...IN SOUTHWEST TEXAS AND SOUTHEAST NEW MEXICO...

CITY           SKY/WX    TMP DP  RH WIND       PRES   REMARKS
ALPINE         CLOUDY    35  16  46 SW10      30.42S WCI  27
ANDREWS        FAIR      34  21  59 W5        30.32F WCI  30
ARTESIA        CLOUDY    28  21  74 N5        30.34F WCI  23
BIG SPRING     CLEAR     32  22  65 SE6       30.34R WCI  26
CARLSBAD       CLOUDY    30  21  69 N5        30.33S WCI  25
DRYDEN           N/A     42  20  41 NW8       30.30S WCI  37
FORT STOCKTON  CLEAR     41  22  46 W12       30.32S WCI  34
GUAD PASS      CLOUDY    46  15  28 SW7       30.37F
HOBBS          CLOUDY    32  19  59 W9        30.33F WCI  24
MARFA          CLOUDY    25  15  66 N6        30.39S WCI  18
MIDLAND AIRPK  PTCLDY    39  25  55 CALM      30.33S
MIDLAND INTL   PTCLDY    37  24  59 W5        30.32S WCI  33
ODESSA         PTCLDY    40  23  50 W6        30.32F WCI  36
PECOS          CLOUDY    30  22  74 W6        30.34S WCI  24
PRESIDIO       FAIR      41  17  37 NW5       30.36R WCI  38
SEMINOLE       CLOUDY    35  22  58 W7        30.33S WCI  29
SNYDER           N/A     38  25  61 N7        30.31S WCI  32
WINK           CLOUDY    30  20  66 N7        30.31F WCI  23
$$
...OTHER STATIONS IN TEXAS...

CITY           SKY/WX    TMP DP  RH WIND       PRES   REMARKS
ABILENE        CLEAR     39  29  67 CALM      30.30S
AMARILLO       CLOUDY    31  22  69 SW8       30.27F WCI  23
AUSTIN         CLEAR     32  29  88 CALM      30.34F
BROWNSVILLE    CLEAR     46  42  86 SW5       30.34S
CORPUS CHRISTI CLEAR     42  31  64 SW3       30.32S
DALLAS FTW     CLEAR     37  25  61 N3        30.32S
DEL RIO        CLEAR     39  26  59 CALM      30.30S
EL PASO        CLEAR     37  18  46 NE5       30.34S WCI  33
HOUSTON INT    CLEAR     44  28  53 CALM      30.35R
LUBBOCK        CLOUDY    27  17  66 W8        30.30F WCI  19
SAN ANGELO     CLEAR     32  22  66 CALM      30.31S
SAN ANTONIO    CLEAR     47  30  51 N5        30.33S
WACO           CLEAR     29  25  85 SW3       30.34S
WICHITA FALLS  NOT AVBL
$$
...OTHER LOCATIONS IN NEW MEXICO...

CITY           SKY/WX    TMP DP  RH WIND       PRES   REMARKS
ALAMAGORDO     CLOUDY    32  16  51 CALM      30.36S
ALBUQUERQUE    CLOUDY    35  21  56 N6        30.39F WCI  30
CANNON AFB     CLOUDY    36  18  47 NW9       30.30F WCI  29
CLOVIS         CLOUDY    30  18  59 W10       30.31F WCI  21
HOLLOMAN AFB   CLOUDY    29  14  54 E7        30.34F WCI  22
ROSWELL        CLOUDY    31  18  58 N6        30.33F WCI  25
RUIDOSO          N/A     36  14  41 W3        30.41S
SANTA FE       CLOUDY    29  17  61 N15       30.38F WCI  18
TRUTH OR CONSE CLEAR     35  18  49 NW7       30.36F WCI  29
TUCUMCARI      CLOUDY    31  18  58 W6        30.28F WCI  25
$$



USA.gov is the U.S. government's official web portal to all federal, state and local government web resources and services.